Preview of NWS' New Version of Forecast
This preview is not operational and should not be used for support decisions.
Latest weather observations around

Whidbey Island, Naval Air Station (KNUW)

Using English Units (Switch to International System of Units)
Date/ Time (PDT) Wind (mph) Vis. (mi) Weather Sky Cond. Temp (°F) Rel. Humidity Wind Chill (°F) Heat Index (°F) Pressure Precip. (in)
Air Dwpt 6 hour Altimeter (inHg) Sea level (inHg) 1 hr 3 hr 6 hr
Max Min
Mar 21 18:56 SW 13 10 Mostly Cloudy FEW040 SCT110 BKN180 53 44     71%     30.07        
Mar 21 17:56 WSW 8 10 Mostly Cloudy FEW030 SCT120 BKN200 54 43     66%     30.07        
Mar 21 16:56 WSW 8 10 Partly Cloudy FEW030 SCT120 SCT200 55 44     66%     30.07 30.07      
Mar 21 15:56 W 7 10 Mostly Cloudy FEW030 SCT120 BKN200 54 44     69%     30.07 30.07      
Mar 21 14:56 W 6 10 Mostly Cloudy FEW030 SCT120 BKN200 55 44     66%     30.08 30.07      
Mar 21 13:56 WNW 7 10 Mostly Cloudy FEW035 SCT110 SCT180 BKN250 56 44     64%     30.09 30.09      
Mar 21 12:56 WSW 10 10 Cloudy FEW030 SCT100 SCT180 OVC250 55 44     66%     30.11 30.11      
Mar 21 11:56 WSW 14 10 Mostly Cloudy FEW030 SCT180 BKN250 56 44     64%     30.12        
Mar 21 10:56 SSW 11 10 Mostly Cloudy SCT180 BKN250 55 44     66%     30.11        
Mar 21 09:56 SSW 8 10 Mostly Cloudy SCT180 BKN250 54 44     69%     30.1 30.09      
Mar 21 08:56 SSW 8 10 Mostly Cloudy FEW180 BKN250 53 44     71%     30.08 30.08      
Mar 21 07:56 SSW 8 10 Mostly Cloudy FEW180 BKN250 50 43     77%     30.08 30.07      
Mar 21 06:56 SSE 6 10 Mostly Cloudy FEW180 BKN250 46 36     68% 43   30.06 30.06      
Mar 21 05:56 ESE 10 10 Mostly Cloudy SCT180 BKN250 46 35     65% 41   30.04 30.03      
Mar 21 04:56 ESE 9 10 Mostly Clear FEW250 47 35     63% 43   30.03 30.02      
Mar 21 03:56 SE 6 10 Mostly Clear FEW250 47 36     65% 44   30.02 30.02      
Mar 21 02:56   10 Mostly Clear FEW250 47 35     63%     30.02 30.02      
Mar 21 01:56 ESE 11 10 Mostly Clear FEW210 49 36     61% 44   30.01 30.01      
Mar 21 00:56 E 10 10 Mostly Clear FEW140 FEW210 51 38     61%     29.99 29.98      
Mar 20 23:56 ESE 9 10 Partly Cloudy FEW150 SCT210 49 39     69% 45   29.97 29.96      
Mar 20 22:56 ESE 8 10 Mostly Cloudy FEW180 BKN250 51 39     63%     29.95 29.94      
Mar 20 21:56 ESE 7 10 Mostly Cloudy FEW180 BKN240 50 39     66%     29.93 29.93      
Mar 20 20:56 Calm 10 Mostly Cloudy FEW110 SCT200 BKN250 54 39     57%     29.91 29.91      
Mar 20 19:56 SSE 5 10 Mostly Cloudy FEW140 SCT210 BKN250 53 39     59%     29.89 29.89      
Mar 20 18:56 Calm 10 Partly Cloudy FEW120 SCT200 SCT250 55 40     57%     29.88 29.87      
Mar 20 17:56 W 5 10 Partly Cloudy FEW140 SCT200 SCT250 64 38     38%     29.87 29.87      
Mar 20 16:56 NW 3 10 Partly Cloudy FEW130 FEW200 SCT250 63 37     38%     29.88 29.88      
Mar 20 15:56 WSW 11 10 Clear CLR 61 39     44%     29.89 29.88      
Mar 20 14:56 WSW 9 10 Mostly Clear FEW250 60 40     47%     29.89 29.89      
Mar 20 13:56 W 7 10 Mostly Clear FEW250 60 39     46%     29.92 29.91      
Mar 20 12:56 W 7 10 Mostly Clear FEW250 59 41     51%     29.94 29.93      
Mar 20 11:56 NNW 9 10 Mostly Clear FEW250 62 38     41%     29.96 29.95      
Mar 20 10:56 NNW 8 10 Mostly Clear FEW250 59 38     45%     29.97 29.97      
Mar 20 09:56 N 8 10 Mostly Clear FEW250 56 39     53%     29.97 29.97      
Mar 20 08:56 NNW 5 10 Mostly Clear FEW250 52 41     66%     29.98 29.98      
Mar 20 07:56 W 6 10 Mostly Clear FEW250 48 37     66% 45   29.98 29.98      
Mar 20 06:56 Calm 10 Mostly Clear FEW250 49 31     50%     29.97 29.97      
Mar 20 05:56 NNE 3 10 Mostly Clear FEW250 50 31     48%     29.98 29.98      
Mar 20 04:56 Calm 10 Clear CLR 49 32     52%     29.98 29.97      
Mar 20 03:56 SE 3 10 Clear CLR 47 35     63% 46   29.99 29.98      
Mar 20 02:56 Calm 10 Clear CLR 50 35     56%     29.99 29.99      
Mar 20 01:56 Calm 10 Clear CLR 47 36     65%     29.99 29.99      
Mar 20 00:56 E 11 10 Clear CLR 47 37     68% 42   30 30      
Mar 19 23:56 ESE 5 10 Mostly Clear FEW250 49 36     61% 47   30 30      
Mar 19 22:56 Calm 10 Mostly Clear FEW250 51 38     61%     30 29.99      
Mar 19 21:56 E 9 10 Mostly Clear FEW250 51 39     63%     29.99 29.98      
Mar 19 20:56 E 7 10 Partly Cloudy SCT250 53 39     59%     29.98 29.98      
Mar 19 19:56 SE 6 10 Mostly Clear FEW250 58 37     46%     29.98 29.98      
Mar 19 18:56 E 6 10 Mostly Clear FEW020 FEW250 66 33     29%     29.98 29.97      
Mar 19 17:56 E 5 10 Partly Cloudy FEW210 SCT250 74 34     23%   72 29.98 29.98      
Mar 19 16:56 Calm 10 Mostly Clear FEW210 FEW250 75 32     21%   73 30.01 30      
Mar 19 15:56 NNW 7 10 Mostly Clear FEW180 FEW250 69 35     29%     30.02 30.02      
Mar 19 14:56 N 9 10 Mostly Clear FEW200 FEW250 67 37     33%     30.04 30.03      
Mar 19 13:56 NNW 7 10 Mostly Clear FEW250 64 39     40%     30.07 30.06      
Mar 19 12:56 NNW 7 10 Mostly Clear FEW250 60 41     49%     30.08 30.08      
Mar 19 11:56 NNW 7 10 Mostly Clear FEW250 61 34     36%     30.1 30.1      
Mar 19 10:56 E 6 10 Mostly Clear FEW250 63 32     31%     30.11 30.1      
Mar 19 09:56 ESE 8 10 Mostly Clear FEW250 58 32     37%     30.11 30.11      
Mar 19 08:56 ESE 6 10 Mostly Clear FEW250 53 32     45%     30.11 30.11      
Mar 19 07:56 E 7 10 Mostly Clear FEW250 48 31     51% 45   30.11 30.11      
Mar 19 06:56 E 8 10 Mostly Clear FEW250 45 33     64% 41   30.13 30.12      
Mar 19 05:56 ESE 8 10 Mostly Clear FEW250 45 31     58% 41   30.13 30.13      
Mar 19 04:56 E 7 10 Clear CLR 44 30     58% 40   30.14 30.14      
Mar 19 03:56 SE 8 10 Clear CLR 41 33     73% 36   30.16        
Mar 19 02:56 E 7 10 Clear CLR 45 37     74% 41   30.16 30.16      
Mar 19 01:56 E 7 10 Clear CLR 47 38     71% 44   30.16 30.15      
Mar 19 00:56 ESE 9 10 Clear CLR 47 36     65% 43   30.15 30.14      
Mar 18 23:56 E 11 10 Clear CLR 47 37     68% 42   30.15 30.14      
Mar 18 22:56 ESE 9 10 Clear CLR 49 37     63% 45   30.14 30.14      
Mar 18 21:56 ESE 5 10 Clear CLR 51 36     56%     30.14 30.14      
Mar 18 20:56 ESE 7 10 Clear CLR 51 38     61%     30.13 30.13      
Mar 18 19:56 E 9 10 Mostly Clear FEW250 54 38     55%     30.12 30.12      
May 15 05:56 SW 10 1 Fog/Mist SKC BKN005 OVC120 53 50     89%     29.95        
May 15 03:40 SW 6 1.5 Fog/Mist SCT004 SCT120 53 50     89%     29.93        
May 14 10:56 W 7 10 Partly Cloudy SCT250 64 53     67%     30 30      
May 13 15:56 W 5 10 Partly Cloudy SCT250 70 54     57%       29.96      
May 13 10:56 W 9 10 Mostly Clear FEW250 65 53     65%     30.02 30.01      
May 13 09:56 WNW 5 10 Clear CLR 63 53     70%     30.02 30.02      
May 12 16:56 WSW 7 10 Mostly Clear FEW250 64 51     63%       30.06      
May 11 19:56 W 3 10 Mostly Clear FEW035 56 50     80%     30.23 30.23      
May 11 06:56   10 Mostly Cloudy BKN026 BKN200 53 47     80%     30.28 30.28 0    
Jun 12 05:56 SW 10 8 Cloudy BKN009 OVC055 55 50     83%     30.03        
Jun 11 19:56 WSW 7 10 Partly Cloudy FEW055 FEW120 SCT170 SCT250 59 47     64%     30.03 30.03      
Jun 11 18:56 W 9 10 Partly Cloudy FEW050 FEW110 SCT210 SCT250 59 48     67%     30.02 30.02      
Jun 10 18:56 WSW 3 10 Mostly Cloudy FEW050 SCT080 SCT120 BKN240 57 47     69%     29.92        
Jun 10 16:56 WSW 11 10 Mostly Cloudy FEW030 SCT045 SCT070 SCT210 BKN250 58 47     67%     29.91        
Jun 10 14:56 W 9 10 Mostly Cloudy FEW026 SCT042 SCT110 BKN220 BKN250 59 47     64%     29.91 29.91      
Jun 09 23:56 SE 7 10 Mostly Cloudy FEW032 BKN070 BKN090 54 45     72%     29.88 29.88      
Jun 08 18:56 ESE 5 10 Light Rain SCT032 BKN045 BKN060 OVC140 56 49     77%       29.94 0    
Jun 07 21:56 3 10 Cloudy FEW050 SCT090 BKN110 OVC220 60 42     51%              
Jun 07 11:56 WNW 7 10 Mostly Cloudy FEW050 SCT120 BKN190 63 47     56%     29.79 29.79      
Jun 07 05:56 Calm 10 Cloudy FEW120 SCT160 OVC250 52 43     71%     29.9